Weather Service Report


605 
ASUS41 KPHI 010010
RWRPHI

REGIONAL WEATHER ROUNDUP
NATIONAL WEATHER SERVICE MOUNT HOLLY NJ
800 PM EDT THU JUL 31 2014

NOTE:  "FAIR" INDICATES FEW OR NO CLOUDS BELOW 12,000 FEET WITH NO
SIGNIFICANT WEATHER AND/OR OBSTRUCTIONS TO VISIBILITY.

 * = STATION DOES NOT REPORT PRECIPITATION (E.G. RAIN, SNOW, ETC.) 
        OR FOG.

NJZ015>026-010100-
SOUTHERN NEW JERSEY
  
CITY           SKY/WX    TMP DP  RH WIND       PRES   REMARKS
POMONA         MOCLDY    75  65  70 S10       30.13R                  
6HR MIN TEMP:  75; 6HR MAX TEMP:  84;                                

RIO GRANDE*    MOCLDY    73  64  73 S10       30.14S                  
MILLVILLE      MOCLDY    76  67  73 VRB5      30.12R                  
WRIGHTSTOWN    PTCLDY    77  64  62 S5        30.09R                  
MOUNT HOLLY    PTCLDY    78  62  57 CALM      30.11R                  
TRENTON        PTCLDY    80  58  46 SW3       30.10R                  
6HR MIN TEMP:  79; 6HR MAX TEMP:  84;                                


$$
NJZ001>014-010100-
NORTHERN NEW JERSEY
  
CITY           SKY/WX    TMP DP  RH WIND       PRES   REMARKS
SUSSEX         MOCLDY    75  61  61 SW3       30.11R                  
ANDOVER*         N/A     72  62  71 CALM      30.12R                  
MORRISTOWN     MOCLDY    81  57  44 W3        30.10R                  
NEWARK         MOCLDY    80  64  58 VRB5      30.09R                  
TETERBORO      MOCLDY    80  63  55 S5        30.08R                  
CALDWELL       CLOUDY    80  57  45 CALM      30.10R                  
SOMERVILLE     PTCLDY    76  62  62 CALM      30.08R                  
ALLAIRE*       PTCLDY    75  64  69 S7        30.12R                  
TOMS RIVER*    PTCLDY    75  64  69 S6        30.13R                  

$$
PAZ043-044-047-054-055-060>062-066>071-010100-
EASTERN PENNSYLVANIA
  
CITY           SKY/WX    TMP DP  RH WIND       PRES   REMARKS
PHILADELPHIA   MOCLDY    81  63  54 S10       30.11R                  
6HR MIN TEMP:  81; 6HR MAX TEMP:  86;                                

NORTH PHILA    PTCLDY    81  57  43 SW5       30.12R                  
BLUE BELL      CLEAR     79  61  53 SW3       30.10S                  
DOYLESTOWN     CLEAR     77  60  55 VRB3      30.10R                  
QUAKERTOWN*    CLEAR     75  64  69 CALM      30.13R                  
POTTSTOWN      CLEAR     79  61  53 S5        30.12R                  
LANCASTER      PTCLDY    78  58  49 SW6       30.10R                  
COATESVILLE    CLEAR     75  63  64 CALM      30.13R                  
READING        CLEAR     77  62  59 CALM      30.09R                  
6HR MIN TEMP:  77; 6HR MAX TEMP:  84;                                

ALLENTOWN      PTCLDY    75  59  57 CALM      30.11R                  
6HR MIN TEMP:  75; 6HR MAX TEMP:  82; 6HR PCP: TRACE;                

MOUNT POCONO   CLOUDY    69  58  67 W7        30.16S                  
6HR MIN TEMP:  69; 6HR MAX TEMP:  75;                                

HAZLETON       CLOUDY    70  59  68 CALM      30.17S                  
WILKES BARRE   CLEAR     75  56  51 SW7       30.12R                  

$$
DEZALL-MDZ008-012-015-019-020-010100-
DELAWARE AND EASTERN MARYLAND
  
CITY           SKY/WX    TMP DP  RH WIND       PRES   REMARKS
WILMINGTON     PTCLDY    80  62  54 SW7       30.11R                  
6HR MIN TEMP:  80; 6HR MAX TEMP:  84;                                

DOVER          MOCLDY    78  65  64 S7        30.10R                  
GEORGETOWN     MOCLDY    77  63  61 S7        30.13R                  
6HR MIN TEMP:  77; 6HR MAX TEMP:  85;                                

EASTON         PTCLDY    81  66  61 S7        30.15R                  
PATUXENT       MOCLDY    78  65  63 S5        30.11R                  
OCEAN CITY     CLOUDY    75  68  78 SW7       30.14R                  
WALLOPS ISLAND MOCLDY    76  68  76 S13       30.15R                  
CAMBRIDGE      MOCLDY    79  68  69 CALM      30.12R                  
SALISBURY      MOCLDY    79  67  66 S5        30.13R                  

$$
PAZ001-021-NYZ056-072-MDZ011-DCZ001-010100-
OTHER NEARBY LOCATIONS
  
CITY           SKY/WX    TMP DP  RH WIND       PRES   REMARKS
HARRISBURG     PTCLDY    76  66  71 CALM      30.09R                  
STATE COLLEGE  CLEAR     66  63  88 CALM      30.12R                  
WILLIAMSPORT   PTCLDY    74  62  66 CALM      30.08R                  
BINGHAMTON     CLEAR     68  57  68 S6        30.12R                  
NEW YORK CITY  MOCLDY    76  62  62 VRB3      30.13R                  
BALTIMORE      MOCLDY    79  66  64 SE5       30.09R                  
WASHINGTON DC  MOCLDY    84  64  50 S13       30.10R                  

$$

Return to Home page


Western Regional Climate Center, wrcc@dri.edu